NOAA 16 DEB, 41409

Orbit data source: Space-Track

NOAA 16 DEB, 41409 is space debris in SSO originally from a launch on Thu, 21 Sep 2000 UTC launched from the Air Force Western Test Range (AFWTR). Debris objects in space refer to the collection of defunct objects orbiting the Earth. Examples of debris include non-operational satellites, rocket bodies, and fragments generated from explosions, collisions, or faulty payload assembly.

Loading next visibility...
Identifier
41409, 2000-055KN
Orbit
SSO
Country
Flag of USUS
Related business
Manufacturer
Unknown
Mission
Spacecraft
Bus & Motor
Unknown
Mass
Unknown
Launch date (UTC)
2000-09-21 (26 years ago)
Launch vehicle
Unknown
Launch site
Air Force Western Test Range (AFWTR)
Object type
Payload
Rocket body
Debris
Shape & HBR
Unknown shape, 0.1 m
Radar Cross Section
Medium (>0.1 m² and <1 m²)

Expand to show TLE details & history
Last TLE update: 1 week ago

TLE from 1 week ago
0 NOAA 16 DEB
1 41409U 00055KN  26152.19034739  .00007035  00000-0  20792-2 0  9997
2 41409  98.6394 239.4243 0023741 245.2007 114.6713 14.43614808533668
Epoch: 2026-06-01T04:34Z
TLE epoch observation values (Epoch: 2026-06-01T04:34:06.014Z)
Latitude
-0.00001°
Longitude
-78.78198°
Altitude
756.624 km
Speed
7.472 km/s
True Right ascension
15h 57m 41s
True Declination
0° 00' 00"
Sunlit
Object was in full shadow at epoch
Visualization orbit readout
Latitude
Unknown
Longitude
Unknown
Altitude
Unknown
Speed
Unknown
Apparent Right ascension
Unknown
Apparent Declination
Unknown
Sunlit
N/A
Visualization observer readout
Local Sidereal Time
16:06:57
Azimuth
Unknown
Elevation
Unknown
Doppler factor
Unknown
Orbital elements
Apogee altitude
760.612 km
Perigee altitude
726.796 km
Semi-major axis
7,121.841 km
Eccentricity
0.00237
Inclination
98.6394°
RAAN
239.4243°
Arg. of periapsis
245.2007°
True anomaly
114.91821°
Mean anomaly
114.6713°
Eccentric anomaly
114.79479°
Mean motion
3.61123 °/min
Orbital period
99.69 mins
BSTAR
0.0020792
Loading maneuver chart data...
Computing Atmospheric mass density...
Loading historical data...
Loading historical data...
Loading historical data...
Loading historical data...
Loading historical data...
Loading historical data...
Loading historical data...

Documentation

Showing up to 5 results
|